weather.gov     
National Weather Service

Terminal Aerodrome Forecast
NWS Homepage
This page is being discontinued on March 12, 2014.
The same data is available at this site. Please update your bookmarks.
Thank you, and we apologize for the inconvenience.
Please send an email to SR-SRH.Webmaster@noaa.gov with any concerns.


Current Version
Previous Version:    01  02  03  04  05  06  07  08  09  10  11  12  13  14  15  16  17  18  19  20  21  22  23  24  25  26  27  28  29  30  
   31  32  33  34  35  36  37  38  39  40  41  
[Printable]
266
FTUS45 KRIW 302300
TAFCOD
TAF
KCOD 302324Z 0100/0124 VRB10G15KT P6SM VCTS SCT040CB BKN070
     FM010200 36008KT 5SM -SHRA BR SCT008 OVC030
     FM010400 36008KT 5SM -SHRA BR OVC008
     FM011200 01007KT 4SM -RASN SCT012 OVC020
      TEMPO 0113/0116 2SM -SHSN BKN012
     FM011700 01007KT P6SM VCSH OVC030
      AMD LTD TO CLD VIS AND WIND=


U.S. Dept. of Commerce
NOAA National Weather Service
1325 East West Highway
Silver Spring, MD 20910
E-mail: w-nws.webmaster@noaa.gov
Page last modified: May 16, 2007
NATIONAL WEATHER SERVICE: for Safety, for Work, for Fun - FOR LIFE